Location: Unspecified
(0.0000°N, 0.0000°E)
Time: 18:57:08
(UTC+02:00)

Tiros 1 despin weight - All Passes

Search period start: 23 July 2016 00:00
Search period end: 02 August 2016 00:00
Orbit: 596 x 644 km, 48.2° (Epoch: 22 July)

Date Brightness Start Highest point End Pass type
(mag) Time Alt. Az. Time Alt. Az. Time Alt. Az.
23 Jul - 00:03:55 10° S 00:07:41 25° SE 00:11:25 10° ENE night (unlit)
23 Jul - 01:45:28 10° WSW 01:49:08 24° NW 01:52:45 10° N night (unlit)
23 Jul - 12:11:51 10° NNW 12:16:04 40° NE 12:20:22 10° ESE daylight
23 Jul - 13:54:56 10° W 13:57:33 15° SW 14:00:12 10° SSW daylight
24 Jul - 00:20:20 10° SSW 00:24:55 70° SE 00:29:25 10° NE night (unlit)
24 Jul - 12:28:46 10° NW 12:33:15 70° SW 12:37:49 10° SSE daylight
24 Jul - 22:57:58 10° SSE 23:00:37 15° SE 23:03:15 10° E night (unlit)
25 Jul - 00:37:47 10° WSW 00:42:06 40° NW 00:46:21 10° NNE night (unlit)
25 Jul - 11:05:28 10° N 11:09:02 23° NE 11:12:40 10° ESE daylight
25 Jul - 12:46:46 10° WNW 12:50:28 25° SW 12:54:14 10° S daylight
25 Jul - 23:13:33 10° SSW 23:17:53 39° SE 23:22:09 10° ENE night (unlit)
26 Jul - 00:56:39 10° W 00:59:20 15° NW 01:01:59 10° NNW night (unlit)
26 Jul - 11:21:48 10° NNW 11:26:14 66° NE 11:30:45 10° SE daylight
26 Jul - 23:30:28 10° SW 23:35:05 72° NW 23:39:37 10° NNE night (unlit)
27 Jul - 09:59:42 10° NNE 10:02:00 14° NE 10:04:18 10° E daylight
27 Jul - 11:39:11 10° WNW 11:43:26 42° SW 11:47:44 10° SSE daylight
27 Jul - 22:07:06 10° S 22:10:50 23° SE 22:14:30 10° ENE night (unlit)
27 Jul - 23:48:27 10° WSW 23:52:16 26° NW 23:56:03 10° N night (unlit)
28 Jul - 10:15:07 10° NNW 10:19:13 37° NE 10:23:24 10° ESE daylight
28 Jul - 11:57:57 10° W 12:00:41 16° SW 12:03:27 10° SSW daylight
28 Jul - 22:23:26 10° SSW 22:28:04 65° SE 22:32:35 10° NE visible
29 Jul - 10:31:58 10° NW 10:36:24 75° SW 10:40:56 10° SE daylight
29 Jul - 21:01:14 10° SSE 21:03:44 14° SE 21:06:13 10° E visible
29 Jul - 22:40:49 10° WSW 22:45:15 44° NW 22:49:36 10° NNE visible
30 Jul - 09:08:47 10° N 09:12:12 22° NE 09:15:39 10° E daylight
30 Jul - 10:49:52 10° WNW 10:53:37 26° SW 10:57:25 10° S daylight
30 Jul - 21:16:42 10° SSW 21:21:01 37° SE 21:25:16 10° ENE visible
30 Jul - 22:59:29 10° W 23:02:27 17° NW 23:05:23 10° N visible
31 Jul - 09:25:02 10° NNW 09:29:24 61° NE 09:33:50 10° SE daylight
31 Jul - 21:33:32 10° SW 21:38:12 78° NW 21:42:48 10° NE visible
01 Aug - 08:03:13 10° NNE 08:05:09 13° NE 08:07:06 10° ENE daylight
01 Aug - 09:42:20 10° WNW 09:46:35 45° SW 09:50:53 10° SSE daylight
01 Aug - 20:10:17 10° S 20:13:56 22° SE 20:17:33 10° ENE daylight
01 Aug - 21:51:25 10° WSW 21:55:23 28° NW 21:59:20 10° N visible
